Weather History for Vacaville, CA

Change the Weather History Date:

Tuesday, November 20, 2012

  Actual Average Record
Temperature  
Mean Temperature 58 °F -  
Max Temperature 64 °F 61 °F 75 °F (1989)
Min Temperature 51 °F 39 °F 28 °F (1985)
Degree Days  
Heating Degree Days 8    
Growing Degree Days 8 (Base 50)    
Moisture  
Dew Point 54 °F    
Average Humidity 87    
Maximum Humidity 100    
Minimum Humidity 68    
Precipitation  
Precipitation 0.34 in - - ()
Sea Level Pressure  
Sea Level Pressure 30.09 in    
Wind  
Wind Speed 6 mph (South)    
Max Wind Speed 13 mph    
Max Gust Speed 21 mph    
Visibility 8 miles    
Events Rain    
Averages and records for this station are not official NWS values.
T = Trace of Precipitation, MM = Missing Value Source: NWS Daily Summary

Daily Weather History Graph

Daily Weather History Graph

Search for Another Location

Airport:

Trip Planner

Search our weather history database for the weather conditions in past years. The results will help you decide how hot, cold, wet, or windy it might be!

Date:

Astronomy

Nov. 20, 2012 Rise Set
Actual Time 6:55 AM PST 4:51 PM PST
Civil Twilight 6:26 AM PST 5:20 PM PST
Nautical Twilight 5:54 AM PST 5:52 PM PST
Astronomical Twilight 5:22 AM PST 6:23 PM PST
Moon 12:35 PM PST (11/20) No Moon Set
Length of Visible Light 10h 53m
Length of Day
9h 56m
First Quarter, 52% of the Moon is Illuminated
Nov 20
First Quarter
Nov 28
Full
Dec 6
Last Quarter
Dec 13
New
Dec 19
First Quarter

Hourly Weather History & Observations

Time (PST) Temp. Dew Point Humidity Pressure Visibility Wind Dir Wind Speed Gust Speed Precip Events Conditions
12:53 AM 57.0 °F 48.0 °F 72% 30.16 in 10.0 mi South 6.9 mph - N/A   Mostly Cloudy
1:53 AM 57.0 °F 48.0 °F 72% 30.15 in 10.0 mi South 6.9 mph - N/A   Overcast
2:53 AM 55.9 °F 48.9 °F 77% 30.14 in 10.0 mi South 3.5 mph - N/A   Overcast
3:48 AM 53.6 °F 48.2 °F 82% 30.13 in 10.0 mi SSE 5.8 mph - N/A   Overcast
3:53 AM 54.0 °F 48.9 °F 83% 30.13 in 10.0 mi SSE 4.6 mph - N/A   Overcast
4:53 AM 53.1 °F 48.0 °F 83% 30.13 in 10.0 mi SSE 3.5 mph - N/A   Overcast
5:53 AM 53.1 °F 48.9 °F 86% 30.14 in 9.0 mi SSE 4.6 mph - N/A   Overcast
6:08 AM 51.8 °F 48.2 °F 88% 30.14 in 8.0 mi SSE 3.5 mph - N/A   Overcast
6:30 AM 53.6 °F 48.2 °F 82% 30.14 in 9.0 mi SSE 4.6 mph - N/A   Overcast
6:53 AM 52.0 °F 48.9 °F 89% 30.14 in 9.0 mi SE 4.6 mph - N/A   Overcast
7:20 AM 51.8 °F 50.0 °F 94% 30.14 in 5.0 mi SSE 4.6 mph - 0.00 in Rain Light Rain
7:53 AM 52.0 °F 50.0 °F 93% 30.14 in 5.0 mi SSE 4.6 mph - 0.00 in   Overcast
8:53 AM 53.1 °F 51.1 °F 93% 30.14 in 4.0 mi Calm Calm - 0.01 in Rain Light Rain
9:53 AM 57.0 °F 53.1 °F 87% 30.13 in 10.0 mi South 4.6 mph - 0.00 in   Overcast
10:23 AM 60.8 °F 53.6 °F 77% 30.13 in 10.0 mi South 3.5 mph - N/A   Overcast
11:53 AM 64.0 °F 55.9 °F 75% 30.09 in 10.0 mi South 8.1 mph - 0.00 in   Overcast
12:53 PM 64.0 °F 54.0 °F 70% 30.06 in 10.0 mi South 10.4 mph - N/A   Overcast
1:53 PM 64.9 °F 54.0 °F 68% 30.05 in 10.0 mi South 12.7 mph 17.3 mph N/A   Overcast
2:41 PM 60.8 °F 57.2 °F 88% 30.05 in 2.0 mi South 8.1 mph - 0.02 in Rain Light Rain
2:53 PM 60.1 °F 57.0 °F 90% 30.05 in 2.5 mi South 9.2 mph - 0.04 in Rain Light Rain
3:05 PM 59.0 °F 57.2 °F 94% 30.04 in 3.0 mi SSE 4.6 mph - 0.01 in Rain Light Rain
3:42 PM 60.8 °F 57.2 °F 88% 30.04 in 10.0 mi South 6.9 mph - 0.01 in   Overcast
3:53 PM 61.0 °F 55.9 °F 83% 30.04 in 10.0 mi South 10.4 mph 17.3 mph 0.01 in   Overcast
4:41 PM 60.8 °F 55.4 °F 82% 30.03 in 10.0 mi South 12.7 mph - N/A   Overcast
4:53 PM 61.0 °F 55.9 °F 83% 30.03 in 10.0 mi South 12.7 mph 20.7 mph N/A   Overcast
5:53 PM 60.1 °F 55.0 °F 83% 30.03 in 10.0 mi South 6.9 mph 18.4 mph N/A   Mostly Cloudy
6:53 PM 60.1 °F 55.0 °F 83% 30.03 in 10.0 mi SSE 9.2 mph - N/A   Overcast
7:53 PM 60.1 °F 55.0 °F 83% 30.03 in 10.0 mi South 8.1 mph - 0.00 in   Overcast
8:53 PM 60.1 °F 55.0 °F 83% 30.02 in 9.0 mi South 11.5 mph - 0.01 in Rain Light Rain
9:18 PM 59.0 °F 55.4 °F 88% 30.04 in 7.0 mi SW 5.8 mph - 0.02 in Rain Light Rain
9:53 PM 57.9 °F 57.0 °F 97% 30.07 in 4.0 mi SW 6.9 mph - 0.08 in Rain Light Rain
10:04 PM 57.2 °F 57.2 °F 100% 30.07 in 2.5 mi South 9.2 mph - 0.03 in Rain Rain
10:12 PM 57.2 °F 57.2 °F 100% 30.06 in 3.0 mi South 5.8 mph - 0.06 in Rain Rain
10:19 PM 57.2 °F 57.2 °F 100% 30.07 in 4.0 mi SSW 4.6 mph - 0.06 in Rain Light Rain
10:53 PM 57.9 °F 57.0 °F 97% 30.07 in 3.0 mi SSW 6.9 mph - 0.13 in Rain Rain
11:00 PM 57.2 °F 57.2 °F 100% 30.07 in 2.5 mi South 6.9 mph - 0.02 in Rain Rain
11:08 PM 57.2 °F 57.2 °F 100% 30.06 in 5.0 mi South 5.8 mph - 0.03 in Rain Light Rain
11:49 PM 57.2 °F 57.2 °F 100% 30.07 in 10.0 mi South 4.6 mph - 0.06 in   Overcast
11:53 PM 57.9 °F 57.0 °F 97% 30.07 in 10.0 mi South 4.6 mph - 0.06 in   Overcast